Current Weather Conditions: station 03380

sailwx.info

Wind from 210

Air temperature 18.9° C
Dewpoint 9.9° C

Last reported at 2019-Jun-18 11:00 UTC.
Time now 2019-Jun-18 12:46 UTC

Location: N 53°36' E 000°06'.
View on Google Maps.

See reports from other nearby stations

  
Tides and Currents Weather Stations Pressure Air Temp Water Temp Dewpoint Dewpoint Depression Visibility Wind Speed Wind Dir Waves Ship Positions
date/time (UTC)wind fromknots sea level pressurealtimeterstation pressurevisibilityair tempwater tempwave heightnotes
2019-Jun-18 11:00 210 18.9
2019-Jun-18 10:00 200 17.4
2019-Jun-18 09:00 220 16.4
2019-Jun-18 08:00 220 15.3
2019-Jun-18 07:00 220 14.0
2019-Jun-18 06:00 210 13.7
2019-Jun-18 05:00 220 13.1
2019-Jun-18 04:00 210 12.5
2019-Jun-18 03:00 220 12.5
2019-Jun-18 02:00 220 12.7
2019-Jun-18 01:00 230 13.4
2019-Jun-18 00:00 220 14.5
2019-Jun-17 23:00 230 14.7
2019-Jun-17 22:00 230 15.2
2019-Jun-17 21:00 200 16.6
2019-Jun-17 20:00 200 17.0
2019-Jun-17 19:00 190 18.4
2019-Jun-17 18:00 200 19.2
2019-Jun-17 17:00 200 19.9
2019-Jun-17 16:00 200 21.1
2019-Jun-17 15:00 210 20.9
2019-Jun-17 14:00 210 20.4
2019-Jun-17 13:00 210 19.8
2019-Jun-17 12:00 200 18.8
2019-Jun-17 11:00 200 18.9
2019-Jun-17 10:00 200 17.7
2019-Jun-17 09:00 200 16.9
2019-Jun-17 08:00 190 16.0
2019-Jun-17 07:00 190 14.4
2019-Jun-17 06:00 190 13.3
2019-Jun-17 05:00 180 13.1
2019-Jun-17 04:00 200 13.3
2019-Jun-17 03:00 200 13.2
2019-Jun-17 02:00 200 13.5
2019-Jun-17 01:00 200 13.7
2019-Jun-17 00:00 200 14.3
2019-Jun-16 23:00 200 15.0
2019-Jun-16 22:00 190 15.0
2019-Jun-16 21:00 200 15.9
2019-Jun-16 20:00 200 16.9
2019-Jun-16 19:00 210 18.1
2019-Jun-16 18:00 210 18.7
2019-Jun-16 17:00 210 18.5
2019-Jun-16 16:00 140 15.0
2019-Jun-16 15:00 140 15.8
2019-Jun-16 14:00 140 15.8
2019-Jun-16 13:00 190 18.0
2019-Jun-16 12:00 200 17.1